Estación de Polizones INIA

Ultimos registro cada 15 minutos 47
Estación Fecha / Hora Temperatura Humedad Lluvia Velocidad Dirección Radiación Presion
47 Polizones INIA 05-05-2026 11:30 11 98,4 1,1 0 0 19 993
46 Polizones INIA 05-05-2026 11:15 11 98,4 1,1 0 0 14 993
45 Polizones INIA 05-05-2026 11:00 11 98,5 0,7 0 0 14 993
44 Polizones INIA 05-05-2026 10:45 10,9 98,4 0,6 0 0 17 993
43 Polizones INIA 05-05-2026 10:30 10,8 98,4 0,7 0 0 24 993
42 Polizones INIA 05-05-2026 10:15 10,7 98,5 0,3 0 0 27 993
41 Polizones INIA 05-05-2026 10:00 10,6 98,5 0 0 0 22 993
40 Polizones INIA 05-05-2026 09:45 10,5 98,5 0 0,1 91 24 993
39 Polizones INIA 05-05-2026 09:30 10,4 98,5 0,1 0,1 98 33 993
38 Polizones INIA 05-05-2026 09:15 10,3 98,4 0,1 0 0 27 994
37 Polizones INIA 05-05-2026 09:00 10,2 98,4 0,3 0 0 18 994
36 Polizones INIA 05-05-2026 08:45 10,2 98,4 0,3 0 0 12 994
35 Polizones INIA 05-05-2026 08:30 10,1 98,4 0,2 0 0 7 994
34 Polizones INIA 05-05-2026 08:15 10,1 98,2 0,8 0 0 4 994
33 Polizones INIA 05-05-2026 08:00 10,1 98,2 0,5 0 0 1 994
32 Polizones INIA 05-05-2026 07:45 10,1 98,2 0,3 0 0 0 994
31 Polizones INIA 05-05-2026 07:30 10,1 98,2 0,5 0 0 0 994
30 Polizones INIA 05-05-2026 07:15 10,2 98,1 0,3 0 0 0 994
29 Polizones INIA 05-05-2026 07:00 10,2 98 0,3 0 0 0 994
28 Polizones INIA 05-05-2026 06:45 10,2 98 0,4 0 0 0 994
27 Polizones INIA 05-05-2026 06:30 10,2 98,1 0,4 0 0 0 994
26 Polizones INIA 05-05-2026 06:15 10,2 98 0,5 0 0 0 994
25 Polizones INIA 05-05-2026 06:00 10,2 98 0,4 0 0 0 994
24 Polizones INIA 05-05-2026 05:45 10,2 98 0,4 0 0 0 994
23 Polizones INIA 05-05-2026 05:30 10,2 98 0,3 0 52 0 994
22 Polizones INIA 05-05-2026 05:15 10,2 98 0,2 0 0 0 994
21 Polizones INIA 05-05-2026 05:00 10,2 98,1 0,1 0 26 0 994
20 Polizones INIA 05-05-2026 04:45 10,2 98 0,2 0 20 0 995
19 Polizones INIA 05-05-2026 04:30 10,3 98 0,3 0,1 39 0 995
18 Polizones INIA 05-05-2026 04:15 10,2 98 0,4 0 0 0 995
17 Polizones INIA 05-05-2026 04:00 10,3 97,9 0,3 0 0 0 995
16 Polizones INIA 05-05-2026 03:45 10,2 97,9 0,3 0 0 0 995
15 Polizones INIA 05-05-2026 03:30 10,2 97,8 0,1 0 0 0 995
14 Polizones INIA 05-05-2026 03:15 10,1 97,9 0 0 0 0 996
13 Polizones INIA 05-05-2026 03:00 10,1 97,8 0,2 0 340 0 996
12 Polizones INIA 05-05-2026 02:45 10,1 97,7 0,4 0 5 0 996
11 Polizones INIA 05-05-2026 02:30 10,1 97,6 0,3 0 0 0 996
10 Polizones INIA 05-05-2026 02:15 10,1 97,5 0,2 0 0 0 996
9 Polizones INIA 05-05-2026 02:00 10,1 97,5 0,3 0 0 0 996
8 Polizones INIA 05-05-2026 01:45 10,2 97,4 0,4 0 0 0 996
7 Polizones INIA 05-05-2026 01:30 10,2 97,4 0,3 0 0 0 996
6 Polizones INIA 05-05-2026 01:15 10,2 97,2 0,2 0 0 0 996
5 Polizones INIA 05-05-2026 01:00 10,2 97 0,1 0 0 0 996
4 Polizones INIA 05-05-2026 00:45 10,2 97 0,1 0 0 0 996
3 Polizones INIA 05-05-2026 00:30 10,2 96,9 0,1 0 0 0 995
2 Polizones INIA 05-05-2026 00:15 10,2 97 0 0,1 23 0 996
1 Polizones INIA 05-05-2026 00:00 10,2 96,9 0 0 0 0 996